Location: Caltech
(34.1382°N, 118.1253°W)
Time: 23:39:27
(UTC-07:00)

COSMOS 2428 - Visible Passes

Search period start: 29 March 2017 00:00
Search period end: 08 April 2017 00:00
Orbit: 847 x 856 km, 70.9° (Epoch: 28 March)

Date Brightness Start Highest point End Pass type
(mag) Time Alt. Az. Time Alt. Az. Time Alt. Az.
29 Mar 3.5 03:59:43 45° NNE 03:59:43 45° NNE 04:03:34 10° NNE visible
29 Mar 4.6 05:41:45 11° WNW 05:42:55 11° NW 05:44:34 10° NW visible
30 Mar 3.9 03:48:09 37° NNE 03:48:09 37° NNE 03:51:30 10° NNE visible
30 Mar 4.7 05:30:11 11° WNW 05:30:51 11° NW 05:32:28 10° NW visible
31 Mar 4.2 03:36:33 31° NNE 03:36:33 31° NNE 03:39:26 10° NNE visible
31 Mar 4.7 05:18:34 11° NW 05:18:47 11° NW 05:20:23 10° NW visible
01 Apr 4.4 03:24:53 27° NNE 03:24:53 27° NNE 03:27:22 10° NNE visible
01 Apr 4.8 05:06:55 11° NW 05:06:55 11° NW 05:08:17 10° NW visible
02 Apr 4.7 03:13:11 24° NNE 03:13:11 24° NNE 03:15:18 10° NNE visible
02 Apr 4.8 04:55:12 11° NW 04:55:12 11° NW 04:56:11 10° NW visible
03 Apr 4.9 03:01:27 21° NNE 03:01:27 21° NNE 03:03:13 10° NNE visible
03 Apr 4.9 04:43:28 11° NW 04:43:28 11° NW 04:44:06 10° NW visible
04 Apr 5.0 02:49:40 19° NNE 02:49:40 19° NNE 02:51:09 10° NNE visible
04 Apr 5.0 04:31:42 10° NW 04:31:42 10° NW 04:31:59 10° NW visible
05 Apr 5.1 02:37:52 17° NNE 02:37:52 17° NNE 02:39:05 10° NNE visible
05 Apr 5.0 04:19:53 10° NW 04:19:53 10° NW 04:19:54 10° NW visible
06 Apr 5.3 02:26:02 15° NNE 02:26:02 15° NNE 02:27:01 10° NNE visible
07 Apr 5.4 02:14:10 14° NNE 02:14:10 14° NNE 02:14:56 10° NNE visible
